Starlink 31559

operational
NORAD ID: 59358 Int'l Des: 2024-060 Owner: SPXS Country: US Constellation: starlink
LEOCIRCULAR

Starlink 31559について

説明を読み込み中...

リアルタイム位置

3D地球を読み込み中...

次回通過

高度履歴

Altitude vs Time

uPlot chart will show altitude changes over time

軌道要素

1 59358U 24060L 25352.08262965 -.00007030 00000-0 -24615-3 0 9990
2 59358 43.0023 0.5949 0001175 251.8026 108.2698 15.27582611 97580
Epoch: Dec 18, 2025 • Age: 29 hours

現在のステータス

高度 484.9 km
速度 7.63 km/s
衛星直下点 33.74°N, 61.39°W
打ち上げ日 Mar 31, 2024
運用期間 1.7 years
タイプ internet

技術仕様

分類 Payload
質量 730.00 kg
乾燥質量 700.00 kg
総質量 730.00 kg
長さ 0.30 m
直径 4.10 m
スパン 29.00 m
形状 Box + pan
製造者 SPXS
バスタイプ Starlink V2M
フェーズステータス In Orbit
所有者/国 SPXS/US

大規模コンステレーション

Loading constellations...